30-05-2023, 00:00:04,     33,    1.5,    6.0,   0.00,   0.00, 1025.1,   99.0, -999.0
30-05-2023, 00:00:14,     33,    0.4,    6.1,   0.00,   0.00, 1025.0,   99.0, -999.0
30-05-2023, 00:00:24,     33,    0.3,    6.0,   0.00,   0.00, 1025.0,   98.8, -999.0
30-05-2023, 00:00:34,     33,    0.0,    5.9,   0.00,   0.00, 1025.0,   98.6, -999.0
30-05-2023, 00:00:44,     35,    0.7,    5.9,   0.00,   0.00, 1025.1,   99.0, -999.0
30-05-2023, 00:00:54,     35,    0.0,    5.9,   0.00,   0.00, 1025.0,   98.7, -999.0
30-05-2023, 00:01:04,     35,    0.0,    5.9,   0.00,   0.00, 1025.0,   98.8, -999.0
30-05-2023, 00:01:14,     35,    0.0,    5.9,   0.00,   0.00, 1025.0,   98.7, -999.0
30-05-2023, 00:01:24,     36,    0.0,    5.9,   0.00,   0.00, 1025.0,   98.7, -999.0
30-05-2023, 00:01:34,     35,    0.0,    5.9,   0.00,   0.00, 1025.0,   98.6, -999.0
30-05-2023, 00:01:44,     35,    0.0,    6.0,   0.00,   0.00, 1025.0,   98.7, -999.0
30-05-2023, 00:01:54,     35,    0.2,    5.9,   0.00,   0.00, 1025.0,   98.9, -999.0
30-05-2023, 00:02:04,     35,    0.1,    6.0,   0.00,   0.00, 1025.0,   98.8, -999.0
30-05-2023, 00:02:14,     35,    0.1,    5.8,   0.00,   0.00, 1025.0,   98.8, -999.0
30-05-2023, 00:02:24,     35,    0.0,    6.0,   0.00,   0.00, 1025.0,   98.6, -999.0
30-05-2023, 00:02:34,     35,    0.0,    6.0,   0.00,   0.00, 1025.0,   98.7, -999.0
30-05-2023, 00:02:43,     35,    0.2,    6.0,   0.00,   0.00, 1025.0,   98.9, -999.0
30-05-2023, 00:02:54,     35,    0.0,    5.9,   0.00,   0.00, 1025.0,   98.8, -999.0
30-05-2023, 00:03:04,     35,    0.0,    6.0,   0.00,   0.00, 1025.0,   98.8, -999.0
30-05-2023, 00:03:14,     35,    0.1,    5.9,   0.00,   0.00, 1025.0,   98.8, -999.0
30-05-2023, 00:03:23,     35,    0.0,    6.0,   0.00,   0.00, 1025.0,   98.7, -999.0
30-05-2023, 00:03:34,     35,    0.0,    5.8,   0.00,   0.00, 1025.0,   98.8, -999.0
30-05-2023, 00:03:44,     35,    0.0,    5.9,   0.00,   0.00, 1025.0,   98.7, -999.0
30-05-2023, 00:03:53,     35,    0.0,    6.0,   0.00,   0.00, 1025.0,   98.6, -999.0
30-05-2023, 00:04:03,     35,    0.0,    6.0,   0.00,   0.00, 1025.0,   98.6, -999.0
30-05-2023, 00:04:14,     35,    0.0,    5.9,   0.00,   0.00, 1025.0,   98.6, -999.0
30-05-2023, 00:04:23,     35,    0.0,    6.0,   0.00,   0.00, 1025.0,   98.6, -999.0
30-05-2023, 00:04:33,     35,    0.0,    6.1,   0.00,   0.00, 1025.0,   98.7, -999.0
30-05-2023, 00:04:43,     35,    0.0,    6.0,   0.00,   0.00, 1025.0,   98.6, -999.0
30-05-2023, 00:04:54,     35,    0.0,    6.1,   0.00,   0.00, 1025.0,   98.6, -999.0
30-05-2023, 00:05:03,     35,    0.0,    6.0,   0.00,   0.00, 1025.0,   98.6, -999.0
30-05-2023, 00:05:13,     35,    0.5,    6.0,   0.00,   0.00, 1025.1,   99.0, -999.0
30-05-2023, 00:05:23,     35,    0.7,    6.1,   0.00,   0.00, 1025.1,   99.0, -999.0
30-05-2023, 00:05:33,     35,    0.0,    6.0,   0.00,   0.00, 1025.0,   98.7, -999.0
30-05-2023, 00:05:43,     35,    0.0,    6.0,   0.00,   0.00, 1025.0,   98.7, -999.0
30-05-2023, 00:05:53,     35,    0.0,    5.9,   0.00,   0.00, 1025.0,   98.8, -999.0
30-05-2023, 00:06:03,     35,    0.0,    5.9,   0.00,   0.00, 1025.0,   98.6, -999.0
30-05-2023, 00:06:13,     35,    0.0,    5.9,   0.00,   0.00, 1025.0,   98.7, -999.0
30-05-2023, 00:06:23,     35,    0.0,    5.9,   0.00,   0.00, 1025.0,   98.7, -999.0
30-05-2023, 00:06:33,     35,    0.0,    5.9,   0.00,   0.00, 1025.1,   98.7, -999.0
30-05-2023, 00:06:43,     35,    0.0,    6.0,   0.00,   0.00, 1025.0,   98.6, -999.0
30-05-2023, 00:06:53,     35,    0.0,    6.0,   0.00,   0.00, 1025.0,   98.7, -999.0
30-05-2023, 00:07:03,     35,    0.0,    5.8,   0.00,   0.00, 1025.0,   98.7, -999.0
30-05-2023, 00:07:13,     35,    0.0,    5.8,   0.00,   0.00, 1025.0,   98.7, -999.0
30-05-2023, 00:07:23,     35,    0.0,    5.9,   0.00,   0.00, 1025.0,   98.7, -999.0
30-05-2023, 00:07:33,     35,    0.0,    5.8,   0.00,   0.00, 1025.1,   98.7, -999.0
30-05-2023, 00:07:43,     35,    0.0,    5.8,   0.00,   0.00, 1025.0,   98.6, -999.0
30-05-2023, 00:07:55,     36,    0.0,    5.9,   0.00,   0.00, 1025.0,   98.9, -999.0
30-05-2023, 00:08:03,     35,    0.0,    5.9,   0.00,   0.00, 1025.0,   98.8, -999.0
30-05-2023, 00:08:13,     35,    0.1,    5.8,   0.00,   0.00, 1025.1,   98.8, -999.0
30-05-2023, 00:08:23,     36,    0.5,    5.9,   0.00,   0.00, 1025.1,   99.0, -999.0
30-05-2023, 00:08:33,     35,    0.2,    6.0,   0.00,   0.00, 1025.1,   98.9, -999.0
30-05-2023, 00:08:43,     36,    0.0,    5.8,   0.00,   0.00, 1025.0,   98.8, -999.0
30-05-2023, 00:08:53,     35,    0.2,    5.9,   0.00,   0.00, 1025.1,   98.9, -999.0
30-05-2023, 00:09:03,     35,    0.0,    5.8,   0.00,   0.00, 1025.1,   98.7, -999.0
30-05-2023, 00:09:13,     35,    0.0,    5.8,   0.00,   0.00, 1025.1,   98.7, -999.0
30-05-2023, 00:09:23,     35,    0.0,    5.9,   0.00,   0.00, 1025.0,   98.7, -999.0
30-05-2023, 00:09:33,     36,    0.0,    5.9,   0.00,   0.00, 1025.1,   98.7, -999.0
30-05-2023, 00:09:43,     35,    0.0,    5.9,   0.00,   0.00, 1025.1,   98.7, -999.0
30-05-2023, 00:09:53,     35,    0.0,    5.8,   0.00,   0.00, 1025.0,   98.6, -999.0
30-05-2023, 00:10:03,     35,    0.0,    5.8,   0.00,   0.00, 1025.0,   98.6, -999.0
30-05-2023, 00:10:13,     35,    0.0,    5.9,   0.00,   0.00, 1025.0,   98.7, -999.0
30-05-2023, 00:10:23,     35,    0.3,    6.0,   0.00,   0.00, 1025.1,   98.9, -999.0
30-05-2023, 00:10:32,     35,    0.8,    6.0,   0.00,   0.00, 1025.1,   99.0, -999.0
30-05-2023, 00:10:43,     35,    0.1,    6.0,   0.00,   0.00, 1025.1,   98.9, -999.0
30-05-2023, 00:10:53,     35,    0.0,    5.8,   0.00,   0.00, 1025.1,   98.6, -999.0
30-05-2023, 00:11:03,     35,    0.0,    5.8,   0.00,   0.00, 1025.1,   98.6, -999.0
30-05-2023, 00:11:12,     36,    0.0,    5.8,   0.00,   0.00, 1025.0,   98.6, -999.0
30-05-2023, 00:11:23,     35,    0.0,    5.8,   0.00,   0.00, 1025.1,   98.7, -999.0
30-05-2023, 00:11:33,     35,    0.0,    5.8,   0.00,   0.00, 1025.1,   98.8, -999.0
30-05-2023, 00:11:42,     35,    0.2,    5.8,   0.00,   0.00, 1025.1,   99.0, -999.0
30-05-2023, 00:11:53,     35,    0.0,    5.8,   0.00,   0.00, 1025.1,   98.8, -999.0
30-05-2023, 00:12:03,     35,    0.0,    5.7,   0.00,   0.00, 1025.1,   98.7, -999.0
30-05-2023, 00:12:13,     35,    0.0,    5.8,   0.00,   0.00, 1025.1,   98.7, -999.0
30-05-2023, 00:12:22,     35,    0.0,    5.7,   0.00,   0.00, 1025.1,   98.7, -999.0
30-05-2023, 00:12:33,     35,    0.0,    5.7,   0.00,   0.00, 1025.1,   98.7, -999.0
30-05-2023, 00:12:43,     35,    0.0,    5.8,   0.00,   0.00, 1025.1,   98.8, -999.0
30-05-2023, 00:12:52,     35,    0.0,    5.7,   0.00,   0.00, 1025.1,   98.6, -999.0
30-05-2023, 00:13:02,     35,    0.0,    5.8,   0.00,   0.00, 1025.0,   98.6, -999.0
30-05-2023, 00:13:13,     36,    0.0,    5.9,   0.00,   0.00, 1025.1,   98.6, -999.0
30-05-2023, 00:13:22,     36,    0.0,    5.9,   0.00,   0.00, 1025.0,   98.7, -999.0
30-05-2023, 00:13:32,     35,    0.0,    5.9,   0.00,   0.00, 1025.0,   98.7, -999.0
30-05-2023, 00:13:42,     35,    0.0,    5.8,   0.00,   0.00, 1025.1,   98.7, -999.0
30-05-2023, 00:13:53,     35,    0.0,    5.8,   0.00,   0.00, 1025.1,   98.7, -999.0
30-05-2023, 00:14:02,     35,    0.0,    5.8,   0.00,   0.00, 1025.1,   98.7, -999.0
30-05-2023, 00:14:12,     36,    0.5,    5.8,   0.00,   0.00, 1025.1,   99.0, -999.0
30-05-2023, 00:14:22,     36,    0.4,    5.8,   0.00,   0.00, 1025.1,   99.0, -999.0
30-05-2023, 00:14:32,     34,    0.9,    5.9,   0.00,   0.00, 1025.1,   99.0, -999.0
30-05-2023, 00:14:42,     34,    0.7,    5.8,   0.00,   0.00, 1025.2,   99.0, -999.0
30-05-2023, 00:14:52,     33,    0.0,    5.7,   0.00,   0.00, 1025.1,   98.7, -999.0
30-05-2023, 00:15:02,     33,    0.0,    5.8,   0.00,   0.00, 1025.0,   98.7, -999.0
30-05-2023, 00:15:12,     33,    0.0,    5.6,   0.00,   0.00, 1025.1,   98.6, -999.0
30-05-2023, 00:15:22,     34,    0.0,    5.6,   0.00,   0.00, 1025.1,   98.7, -999.0
30-05-2023, 00:15:32,     33,    0.0,    5.6,   0.00,   0.00, 1025.1,   98.6, -999.0
30-05-2023, 00:15:42,     33,    0.0,    5.7,   0.00,   0.00, 1025.1,   98.7, -999.0
30-05-2023, 00:15:52,     33,    0.0,    5.7,   0.00,   0.00, 1025.1,   98.6, -999.0
30-05-2023, 00:16:02,     34,    0.0,    5.8,   0.00,   0.00, 1025.0,   98.7, -999.0
30-05-2023, 00:16:12,     33,    0.0,    5.7,   0.00,   0.00, 1025.1,   98.7, -999.0
30-05-2023, 00:16:22,     33,    0.0,    5.8,   0.00,   0.00, 1025.0,   98.7, -999.0
30-05-2023, 00:16:32,     34,    0.0,    5.8,   0.00,   0.00, 1025.1,   98.7, -999.0
30-05-2023, 00:16:42,     34,    0.0,    5.8,   0.00,   0.00, 1025.1,   98.6, -999.0
30-05-2023, 00:16:52,     33,    0.0,    5.8,   0.00,   0.00, 1025.0,   98.6, -999.0
30-05-2023, 00:17:02,     33,    0.0,    5.8,   0.00,   0.00, 1025.1,   98.6, -999.0
30-05-2023, 00:17:12,     34,    0.0,    5.8,   0.00,   0.00, 1025.0,   98.7, -999.0
30-05-2023, 00:17:22,     34,    0.0,    5.6,   0.00,   0.00, 1025.0,   98.6, -999.0
30-05-2023, 00:17:32,     34,    0.0,    5.7,   0.00,   0.00, 1025.1,   98.7, -999.0
30-05-2023, 00:17:42,     33,    0.0,    5.7,   0.00,   0.00, 1025.0,   98.6, -999.0
30-05-2023, 00:17:52,     34,    0.2,    5.8,   0.00,   0.00, 1025.1,   98.9, -999.0
30-05-2023, 00:18:02,     32,    0.0,    5.9,   0.00,   0.00, 1025.1,   98.8, -999.0
30-05-2023, 00:18:12,     33,    0.1,    5.7,   0.00,   0.00, 1025.1,   98.9, -999.0
30-05-2023, 00:18:22,     33,    0.0,    5.8,   0.00,   0.00, 1025.0,   98.6, -999.0
30-05-2023, 00:18:32,     34,    0.0,    5.7,   0.00,   0.00, 1025.0,   98.7, -999.0
30-05-2023, 00:18:42,     33,    0.0,    5.8,   0.00,   0.00, 1025.1,   98.9, -999.0
30-05-2023, 00:18:52,     33,    0.2,    5.8,   0.00,   0.00, 1025.1,   98.9, -999.0
30-05-2023, 00:19:02,     33,    0.0,    5.8,   0.00,   0.00, 1025.1,   98.8, -999.0
30-05-2023, 00:19:12,     34,    0.0,    5.8,   0.00,   0.00, 1025.0,   98.7, -999.0
30-05-2023, 00:19:22,     34,    0.0,    5.8,   0.00,   0.00, 1025.0,   98.6, -999.0
30-05-2023, 00:19:31,     33,    0.0,    5.7,   0.00,   0.00, 1025.0,   98.7, -999.0
30-05-2023, 00:19:42,     34,    0.0,    5.7,   0.00,   0.00, 1025.0,   98.6, -999.0
30-05-2023, 00:19:52,     34,    0.0,    5.7,   0.00,   0.00, 1025.0,   98.6, -999.0
30-05-2023, 00:20:02,     34,    0.0,    5.7,   0.00,   0.00, 1025.0,   98.5, -999.0
30-05-2023, 00:20:11,     33,    0.0,    5.8,   0.00,   0.00, 1025.0,   98.6, -999.0
30-05-2023, 00:20:22,     33,    0.0,    5.8,   0.00,   0.00, 1025.1,   98.7, -999.0
30-05-2023, 00:20:32,     34,    0.0,    5.7,   0.00,   0.00, 1025.1,   98.7, -999.0
30-05-2023, 00:20:41,     33,    0.0,    5.8,   0.00,   0.00, 1025.1,   98.7, -999.0
30-05-2023, 00:20:51,     34,    0.0,    5.6,   0.00,   0.00, 1025.1,   98.7, -999.0
30-05-2023, 00:21:02,     34,    0.0,    5.6,   0.00,   0.00, 1025.1,   98.8, -999.0
30-05-2023, 00:21:11,     34,    0.0,    5.7,   0.00,   0.00, 1025.0,   98.6, -999.0
30-05-2023, 00:21:21,     34,    0.0,    5.6,   0.00,   0.00, 1025.0,   98.7, -999.0
30-05-2023, 00:21:32,     34,    0.0,    5.6,   0.00,   0.00, 1025.1,   98.8, -999.0
30-05-2023, 00:21:42,     33,    0.2,    5.8,   0.00,   0.00, 1025.1,   98.9, -999.0
30-05-2023, 00:21:51,     34,    0.0,    5.7,   0.00,   0.00, 1025.1,   98.6, -999.0
30-05-2023, 00:22:01,     33,    0.0,    5.7,   0.00,   0.00, 1025.1,   98.6, -999.0
30-05-2023, 00:22:12,     33,    0.0,    5.7,   0.00,   0.00, 1025.1,   98.7, -999.0
30-05-2023, 00:22:21,     34,    0.0,    5.6,   0.00,   0.00, 1025.0,   98.6, -999.0
30-05-2023, 00:22:31,     34,    0.2,    5.7,   0.00,   0.00, 1025.1,   98.9, -999.0
30-05-2023, 00:22:41,     34,    0.0,    5.7,   0.00,   0.00, 1025.1,   98.7, -999.0
30-05-2023, 00:22:51,     34,    0.0,    5.6,   0.00,   0.00, 1025.1,   98.7, -999.0
30-05-2023, 00:23:01,     34,    0.0,    5.6,   0.00,   0.00, 1025.1,   98.7, -999.0
30-05-2023, 00:23:11,     34,    0.0,    5.6,   0.00,   0.00, 1025.1,   98.5, -999.0
30-05-2023, 00:23:21,     34,    0.0,    5.6,   0.00,   0.00, 1025.1,   98.7, -999.0
30-05-2023, 00:23:31,     33,    0.0,    5.6,   0.00,   0.00, 1025.1,   98.7, -999.0
30-05-2023, 00:23:41,     34,    0.0,    5.5,   0.00,   0.00, 1025.1,   98.7, -999.0
30-05-2023, 00:23:51,     34,    0.0,    5.6,   0.00,   0.00, 1025.1,   98.6, -999.0
30-05-2023, 00:24:01,     33,    0.0,    5.6,   0.00,   0.00, 1025.1,   98.7, -999.0
30-05-2023, 00:24:11,     34,    0.0,    5.6,   0.00,   0.00, 1025.0,   98.6, -999.0
30-05-2023, 00:24:21,     34,    0.0,    5.6,   0.00,   0.00, 1025.1,   98.7, -999.0
30-05-2023, 00:24:31,     33,    0.0,    5.5,   0.00,   0.00, 1025.1,   98.7, -999.0
30-05-2023, 00:24:41,     33,    0.0,    5.6,   0.00,   0.00, 1025.1,   98.7, -999.0
30-05-2023, 00:24:51,     34,    0.0,    5.6,   0.00,   0.00, 1025.1,   98.7, -999.0
30-05-2023, 00:25:01,     34,    0.0,    5.5,   0.00,   0.00, 1025.1,   98.6, -999.0
30-05-2023, 00:25:11,     34,    0.0,    5.7,   0.00,   0.00, 1025.1,   98.6, -999.0
30-05-2023, 00:25:21,     34,    0.0,    5.6,   0.00,   0.00, 1025.1,   98.7, -999.0
30-05-2023, 00:25:31,     34,    0.0,    5.7,   0.00,   0.00, 1025.1,   98.6, -999.0
30-05-2023, 00:25:41,     34,    0.0,    5.7,   0.00,   0.00, 1025.1,   98.8, -999.0
30-05-2023, 00:25:51,     34,    0.0,    5.6,   0.00,   0.00, 1025.1,   98.7, -999.0
30-05-2023, 00:26:01,     34,    0.0,    5.6,   0.00,   0.00, 1025.1,   98.7, -999.0
30-05-2023, 00:26:11,     34,    0.0,    5.6,   0.00,   0.00, 1025.1,   98.7, -999.0
30-05-2023, 00:26:21,     34,    0.0,    5.6,   0.00,   0.00, 1025.1,   98.7, -999.0
30-05-2023, 00:26:31,     34,    0.0,    5.6,   0.00,   0.00, 1025.1,   98.6, -999.0
30-05-2023, 00:26:41,     34,    0.0,    5.6,   0.00,   0.00, 1025.1,   98.7, -999.0
30-05-2023, 00:26:51,     34,    0.0,    5.6,   0.00,   0.00, 1025.1,   98.6, -999.0
30-05-2023, 00:27:01,     34,    0.0,    5.6,   0.00,   0.00, 1025.1,   98.7, -999.0
30-05-2023, 00:27:11,     34,    0.0,    5.6,   0.00,   0.00, 1025.1,   98.6, -999.0
30-05-2023, 00:27:21,     34,    0.0,    5.6,   0.00,   0.00, 1025.1,   98.7, -999.0
30-05-2023, 00:27:31,     34,    0.0,    5.5,   0.00,   0.00, 1025.1,   98.7, -999.0
30-05-2023, 00:27:41,     34,    0.0,    5.5,   0.00,   0.00, 1025.1,   98.7, -999.0
30-05-2023, 00:27:51,     34,    0.0,    5.6,   0.00,   0.00, 1025.1,   98.7, -999.0
30-05-2023, 00:28:00,     34,    0.0,    5.5,   0.00,   0.00, 1025.1,   98.6, -999.0
30-05-2023, 00:28:11,     34,    0.0,    5.6,   0.00,   0.00, 1025.1,   98.7, -999.0
30-05-2023, 00:28:21,     34,    0.0,    5.6,   0.00,   0.00, 1025.1,   98.7, -999.0
30-05-2023, 00:28:31,     34,    0.0,    5.7,   0.00,   0.00, 1025.1,   98.7, -999.0
30-05-2023, 00:28:40,     34,    0.0,    5.7,   0.00,   0.00, 1025.1,   98.6, -999.0
30-05-2023, 00:28:51,     34,    0.0,    5.7,   0.00,   0.00, 1025.1,   98.7, -999.0
30-05-2023, 00:29:01,     33,    0.0,    5.6,   0.00,   0.00, 1025.1,   98.7, -999.0
30-05-2023, 00:29:10,     34,    0.0,    5.6,   0.00,   0.00, 1025.1,   98.7, -999.0
30-05-2023, 00:29:20,     34,    0.0,    5.6,   0.00,   0.00, 1025.1,   98.7, -999.0
30-05-2023, 00:29:31,     34,    0.0,    5.7,   0.00,   0.00, 1025.1,   98.8, -999.0
30-05-2023, 00:29:41,     34,    0.0,    5.6,   0.00,   0.00, 1025.1,   98.7, -999.0
30-05-2023, 00:29:50,     33,    0.0,    5.5,   0.00,   0.00, 1025.1,   98.7, -999.0
30-05-2023, 00:30:00,     34,    0.0,    5.6,   0.00,   0.00, 1025.1,   98.6, -999.0
30-05-2023, 00:30:11,     34,    0.0,    5.6,   0.00,   0.00, 1025.1,   98.7, -999.0
30-05-2023, 00:30:20,     34,    0.0,    5.7,   0.00,   0.00, 1025.1,   98.8, -999.0
30-05-2023, 00:30:30,     34,    0.0,    5.7,   0.00,   0.00, 1025.1,   98.7, -999.0
30-05-2023, 00:30:40,     34,    0.0,    5.8,   0.00,   0.00, 1025.1,   98.7, -999.0
30-05-2023, 00:30:51,     33,    0.0,    5.7,   0.00,   0.00, 1025.1,   98.6, -999.0
30-05-2023, 00:31:00,     34,    0.0,    5.7,   0.00,   0.00, 1025.1,   98.6, -999.0
30-05-2023, 00:31:10,     34,    0.0,    5.7,   0.00,   0.00, 1025.1,   98.7, -999.0
30-05-2023, 00:31:20,     34,    0.0,    5.6,   0.00,   0.00, 1025.1,   98.6, -999.0
30-05-2023, 00:31:30,     33,    0.0,    5.6,   0.00,   0.00, 1025.1,   98.6, -999.0
30-05-2023, 00:31:42,     33,    0.0,    5.6,   0.00,   0.00, 1025.1,   98.7, -999.0
30-05-2023, 00:31:50,     34,    0.0,    5.5,   0.00,   0.00, 1025.1,   98.7, -999.0
30-05-2023, 00:32:00,     34,    0.0,    5.6,   0.00,   0.00, 1025.1,   98.6, -999.0
30-05-2023, 00:32:10,     34,    0.0,    5.6,   0.00,   0.00, 1025.1,   98.6, -999.0
30-05-2023, 00:32:20,     34,    0.0,    5.5,   0.00,   0.00, 1025.1,   98.7, -999.0
30-05-2023, 00:32:30,     34,    0.0,    5.6,   0.00,   0.00, 1025.1,   98.6, -999.0
30-05-2023, 00:32:40,     40,    0.0,    5.6,   0.00,   0.00, 1025.1,   98.6, -999.0
30-05-2023, 00:32:50,     34,    0.0,    5.6,   0.00,   0.00, 1025.1,   98.6, -999.0
30-05-2023, 00:33:00,     34,    0.0,    5.5,   0.00,   0.00, 1025.1,   98.6, -999.0
30-05-2023, 00:33:10,     34,    0.0,    5.6,   0.00,   0.00, 1025.1,   98.7, -999.0
30-05-2023, 00:33:20,     34,    0.0,    5.5,   0.00,   0.00, 1025.1,   98.7, -999.0
30-05-2023, 00:33:30,     34,    0.0,    5.5,   0.00,   0.00, 1025.1,   98.7, -999.0
30-05-2023, 00:33:40,     34,    0.0,    5.5,   0.00,   0.00, 1025.1,   98.7, -999.0
30-05-2023, 00:33:50,     34,    0.0,    5.5,   0.00,   0.00, 1025.1,   98.7, -999.0
30-05-2023, 00:34:00,     34,    0.0,    5.4,   0.00,   0.00, 1025.1,   98.6, -999.0
30-05-2023, 00:34:10,     34,    0.0,    5.5,   0.00,   0.00, 1025.1,   98.7, -999.0
30-05-2023, 00:34:20,     34,    0.0,    5.6,   0.00,   0.00, 1025.1,   98.7, -999.0
30-05-2023, 00:34:30,     34,    0.0,    5.5,   0.00,   0.00, 1025.1,   98.7, -999.0
30-05-2023, 00:34:40,     34,    0.0,    5.5,   0.00,   0.00, 1025.1,   98.6, -999.0
30-05-2023, 00:34:50,     34,    0.0,    5.5,   0.00,   0.00, 1025.1,   98.7, -999.0
30-05-2023, 00:35:00,     34,    0.0,    5.6,   0.00,   0.00, 1025.1,   98.6, -999.0
30-05-2023, 00:35:10,     34,    0.0,    5.5,   0.00,   0.00, 1025.1,   98.6, -999.0
30-05-2023, 00:35:20,     34,    0.0,    5.6,   0.00,   0.00, 1025.1,   98.7, -999.0
30-05-2023, 00:35:30,     34,    0.0,    5.5,   0.00,   0.00, 1025.1,   98.6, -999.0
30-05-2023, 00:35:40,     33,    0.0,    5.7,   0.00,   0.00, 1025.1,   98.6, -999.0
30-05-2023, 00:35:50,     37,    0.0,    5.6,   0.00,   0.00, 1025.1,   98.6, -999.0
30-05-2023, 00:36:00,     34,    0.0,    5.6,   0.00,   0.00, 1025.1,   98.6, -999.0
30-05-2023, 00:36:10,     34,    0.0,    5.6,   0.00,   0.00, 1025.1,   98.7, -999.0
30-05-2023, 00:36:20,     34,    0.0,    5.4,   0.00,   0.00, 1025.1,   98.6, -999.0
30-05-2023, 00:36:30,     34,    0.0,    5.4,   0.00,   0.00, 1025.1,   98.7, -999.0
30-05-2023, 00:36:40,     34,    0.0,    5.5,   0.00,   0.00, 1025.1,   98.7, -999.0
30-05-2023, 00:36:50,     33,    0.0,    5.5,   0.00,   0.00, 1025.1,   98.7, -999.0
30-05-2023, 00:37:00,     34,    0.0,    5.6,   0.00,   0.00, 1025.1,   98.7, -999.0
30-05-2023, 00:37:10,     34,    0.0,    5.5,   0.00,   0.00, 1025.1,   98.7, -999.0
30-05-2023, 00:37:20,     34,    0.0,    5.5,   0.00,   0.00, 1025.1,   98.6, -999.0
30-05-2023, 00:37:30,     33,    0.0,    5.5,   0.00,   0.00, 1025.1,   98.7, -999.0
30-05-2023, 00:37:40,     34,    0.0,    5.4,   0.00,   0.00, 1025.1,   98.7, -999.0
30-05-2023, 00:37:49,     34,    0.0,    5.5,   0.00,   0.00, 1025.1,   98.7, -999.0
30-05-2023, 00:37:59,     34,    0.0,    5.5,   0.00,   0.00, 1025.1,   98.6, -999.0
30-05-2023, 00:38:10,     34,    0.0,    5.5,   0.00,   0.00, 1025.1,   98.6, -999.0
30-05-2023, 00:38:19,     34,    0.0,    5.5,   0.00,   0.00, 1025.1,   98.8, -999.0
30-05-2023, 00:38:29,     34,    0.0,    5.4,   0.00,   0.00, 1025.1,   98.6, -999.0
30-05-2023, 00:38:40,     34,    0.0,    5.4,   0.00,   0.00, 1025.1,   98.7, -999.0
30-05-2023, 00:38:50,     34,    0.0,    5.4,   0.00,   0.00, 1025.1,   98.6, -999.0
30-05-2023, 00:38:59,     34,    0.0,    5.5,   0.00,   0.00, 1025.1,   98.6, -999.0
30-05-2023, 00:39:09,     34,    0.0,    5.5,   0.00,   0.00, 1025.1,   98.7, -999.0
30-05-2023, 00:39:20,     34,    0.0,    5.5,   0.00,   0.00, 1025.1,   98.6, -999.0
30-05-2023, 00:39:29,     33,    0.0,    5.5,   0.00,   0.00, 1025.1,   98.7, -999.0
30-05-2023, 00:39:39,     34,    0.0,    5.3,   0.00,   0.00, 1025.1,   98.6, -999.0
30-05-2023, 00:39:49,     34,    0.0,    5.5,   0.00,   0.00, 1025.1,   98.7, -999.0
30-05-2023, 00:40:00,     33,    0.0,    5.5,   0.00,   0.00, 1025.1,   98.8, -999.0
30-05-2023, 00:40:09,     34,    0.0,    5.4,   0.00,   0.00, 1025.1,   98.7, -999.0
30-05-2023, 00:40:19,     34,    0.0,    5.5,   0.00,   0.00, 1025.1,   98.7, -999.0
30-05-2023, 00:40:29,     34,    0.0,    5.4,   0.00,   0.00, 1025.1,   98.7, -999.0
30-05-2023, 00:40:39,     34,    0.0,    5.5,   0.00,   0.00, 1025.1,   98.7, -999.0
30-05-2023, 00:40:49,     34,    0.0,    5.4,   0.00,   0.00, 1025.1,   98.7, -999.0
30-05-2023, 00:40:59,     34,    0.0,    5.4,   0.00,   0.00, 1025.1,   98.6, -999.0
30-05-2023, 00:41:09,     34,    0.0,    5.4,   0.00,   0.00, 1025.1,   98.8, -999.0
30-05-2023, 00:41:19,     34,    0.0,    5.4,   0.00,   0.00, 1025.1,   98.6, -999.0
30-05-2023, 00:41:29,     34,    0.0,    5.4,   0.00,   0.00, 1025.1,   98.7, -999.0
30-05-2023, 00:41:39,     34,    0.0,    5.4,   0.00,   0.00, 1025.1,   98.6, -999.0
30-05-2023, 00:41:49,     34,    0.0,    5.5,   0.00,   0.00, 1025.1,   98.7, -999.0
30-05-2023, 00:41:59,     34,    0.0,    5.5,   0.00,   0.00, 1025.1,   98.7, -999.0
30-05-2023, 00:42:09,     34,    0.0,    5.5,   0.00,   0.00, 1025.1,   98.7, -999.0
30-05-2023, 00:42:19,     34,    0.0,    5.5,   0.00,   0.00, 1025.1,   98.6, -999.0
30-05-2023, 00:42:29,     34,    0.0,    5.5,   0.00,   0.00, 1025.1,   98.7, -999.0
30-05-2023, 00:42:39,     34,    0.0,    5.5,   0.00,   0.00, 1025.1,   98.6, -999.0
30-05-2023, 00:42:49,     34,    0.0,    5.4,   0.00,   0.00, 1025.1,   98.7, -999.0
30-05-2023, 00:42:59,     34,    0.0,    5.5,   0.00,   0.00, 1025.1,   98.6, -999.0
30-05-2023, 00:43:09,     34,    0.0,    5.5,   0.00,   0.00, 1025.1,   98.7, -999.0
30-05-2023, 00:43:19,     34,    0.0,    5.5,   0.00,   0.00, 1025.1,   98.6, -999.0
30-05-2023, 00:43:29,     34,    0.0,    5.5,   0.00,   0.00, 1025.1,   98.7, -999.0
30-05-2023, 00:43:39,     34,    0.0,    5.5,   0.00,   0.00, 1025.1,   98.7, -999.0
30-05-2023, 00:43:49,     34,    0.0,    5.6,   0.00,   0.00, 1025.1,   98.7, -999.0
30-05-2023, 00:43:59,     34,    0.0,    5.4,   0.00,   0.00, 1025.1,   98.7, -999.0
30-05-2023, 00:44:09,     34,    0.0,    5.5,   0.00,   0.00, 1025.1,   98.7, -999.0
30-05-2023, 00:44:19,     34,    0.0,    5.3,   0.00,   0.00, 1025.1,   98.7, -999.0
30-05-2023, 00:44:29,     34,    0.0,    5.4,   0.00,   0.00, 1025.1,   98.7, -999.0
30-05-2023, 00:44:39,     34,    0.0,    5.3,   0.00,   0.00, 1025.1,   98.6, -999.0
30-05-2023, 00:44:49,     34,    0.0,    5.3,   0.00,   0.00, 1025.1,   98.7, -999.0
30-05-2023, 00:44:59,     34,    0.0,    5.4,   0.00,   0.00, 1025.1,   98.7, -999.0
30-05-2023, 00:45:08,     34,    0.0,    5.5,   0.00,   0.00, 1025.1,   98.6, -999.0
30-05-2023, 00:45:19,     34,    0.0,    5.4,   0.00,   0.00, 1025.1,   98.6, -999.0
30-05-2023, 00:45:29,     34,    0.0,    5.4,   0.00,   0.00, 1025.1,   98.7, -999.0
30-05-2023, 00:45:39,     34,    0.0,    5.4,   0.00,   0.00, 1025.1,   98.7, -999.0
30-05-2023, 00:45:49,     34,    0.0,    5.4,   0.00,   0.00, 1025.1,   98.6, -999.0
30-05-2023, 00:45:59,     34,    0.0,    5.2,   0.00,   0.00, 1025.1,   98.6, -999.0
30-05-2023, 00:46:09,     34,    0.0,    5.3,   0.00,   0.00, 1025.1,   98.8, -999.0
30-05-2023, 00:46:18,     34,    0.0,    5.4,   0.00,   0.00, 1025.1,   98.7, -999.0
30-05-2023, 00:46:29,     34,    0.0,    5.3,   0.00,   0.00, 1025.1,   98.7, -999.0
30-05-2023, 00:46:39,     34,    0.0,    5.3,   0.00,   0.00, 1025.1,   98.6, -999.0
30-05-2023, 00:46:48,     34,    0.0,    5.3,   0.00,   0.00, 1025.1,   98.7, -999.0